GFSFLT2_sfc_thetae_048.txt.gz
Theta_e
337 335 338 334 332 335 339 340 341 342 342 343 342 342 341 340 340 339 337 336 334 333 331 330 331 329 330 330 327 325 316 317
331 333 335 330 326 330 336 339 338 338 339 339 339 340 340 339 338 337 336 335 333 331 330 330 329 327 329 328 326 324 315 316
330 331 330 329 328 330 333 337 337 336 335 334 333 334 334 332 334 335 335 332 331 330 328 326 323 325 325 326 323 316 316 317
327 326 326 325 326 326 332 334 331 330 326 324 327 328 330 331 332 333 332 331 330 328 326 324 319 310 310 320 316 318 319 319
325 326 325 323 322 324 329 329 327 324 323 325 326 327 327 327 326 326 326 328 323 322 317 316 315 310 308 308 312 315 316 319
325 325 325 323 321 323 329 327 324 324 323 325 323 321 321 321 320 321 319 318 316 314 314 313 311 309 306 304 308 311 313 316
324 325 325 326 323 326 326 325 324 325 324 323 322 320 319 318 316 316 316 315 313 315 313 311 308 306 304 304 304 308 309 311
319 322 324 324 323 323 324 324 325 325 324 323 321 320 319 319 317 316 317 316 314 315 312 310 308 304 303 303 303 305 306 306
315 317 318 319 319 319 319 320 318 323 323 323 322 321 320 321 319 318 317 318 316 314 313 310 308 305 302 302 302 302 304 305
317 317 316 317 317 318 317 316 315 313 315 320 321 323 324 321 320 320 320 317 317 314 311 307 305 302 300 299 301 301 301 303
315 316 315 316 316 315 315 315 314 314 313 314 322 322 325 323 321 320 319 317 314 313 310 308 304 302 301 300 300 300 300 303
315 315 314 315 315 314 313 314 314 314 313 315 317 320 323 322 321 321 317 315 313 311 309 306 303 302 304 302 298 299 299 300
313 314 313 313 312 311 311 311 313 313 313 315 318 321 324 322 321 320 317 315 314 312 307 303 301 302 301 300 301 300 298 298
311 311 311 312 312 312 312 312 312 312 313 315 320 319 321 324 322 320 317 314 312 310 306 302 301 302 299 299 297 298 299 298
310 310 309 310 311 310 309 309 310 311 312 315 319 319 319 323 322 320 317 316 313 311 306 304 303 305 304 301 296 296 294 296
310 310 310 311 312 310 309 309 308 312 313 317 319 321 322 323 322 319 318 316 313 312 309 305 305 304 304 305 302 299 295 292
310 310 310 311 311 312 312 314 316 314 314 315 320 320 322 322 321 318 317 319 315 310 308 308 308 307 305 304 302 300 299 295
309 309 310 311 311 313 315 316 315 312 313 315 317 321 322 321 320 320 319 318 315 311 310 308 308 305 305 304 303 301 298 295
310 310 310 312 312 314 316 318 316 313 314 316 317 318 317 319 319 318 316 315 312 312 310 308 307 306 305 303 304 302 300 299
310 311 313 313 314 316 318 318 320 318 317 318 318 319 318 320 319 316 314 315 311 309 309 308 307 306 305 304 303 301 300 299

GFSFLT2_sfc_thetae_051.txt.gz
Theta_e
333 334 332 333 335 333 333 340 340 339 341 341 340 339 338 338 337 336 334 333 332 331 331 332 333 331 330 328 326 324 315 316
333 329 326 328 327 327 332 337 339 339 340 340 339 338 338 336 335 334 333 333 332 330 330 331 332 331 328 327 326 323 314 315
332 325 323 322 324 326 328 338 338 337 339 338 335 334 332 329 332 333 332 330 330 329 327 327 330 329 328 326 321 315 315 316
329 326 323 320 322 321 319 323 332 333 334 331 331 329 327 329 330 331 330 329 328 328 326 322 316 314 322 322 315 316 316 317
326 325 325 323 319 316 319 324 327 324 325 328 328 328 328 325 325 325 324 324 318 315 315 312 309 311 312 314 317 317 317 318
323 323 321 321 321 321 322 323 325 323 325 326 326 324 321 320 321 321 318 317 313 312 311 309 307 306 309 311 314 314 315 317
324 322 321 318 319 320 323 325 323 322 324 323 322 320 319 318 318 316 314 312 312 312 309 307 305 303 303 307 309 312 313 314
323 324 322 319 318 320 326 323 323 323 322 320 318 318 317 317 315 313 313 311 313 312 308 305 303 302 301 303 306 306 307 308
321 324 325 322 322 324 324 323 324 323 321 320 318 318 316 316 313 313 314 312 313 311 309 307 302 301 300 301 303 304 304 304
317 322 321 320 320 319 320 318 323 323 322 321 320 319 319 317 315 315 316 315 313 311 309 306 303 300 298 299 300 301 303 304
315 318 319 318 317 316 315 314 316 318 321 321 321 322 323 319 319 318 317 315 313 312 307 305 302 300 299 298 299 298 298 304
315 316 317 317 315 314 315 314 313 313 313 318 322 322 324 321 319 318 316 314 312 310 307 305 303 302 302 300 297 298 297 299
315 314 315 315 314 314 313 313 313 313 313 316 317 318 322 321 319 318 315 314 312 311 306 304 301 300 300 299 299 299 298 297
314 314 314 315 316 316 315 314 313 313 313 314 316 318 318 320 319 318 316 313 312 310 306 302 301 301 299 298 297 299 298 298
312 312 312 312 313 314 312 312 311 309 311 311 313 317 317 319 320 318 316 314 312 310 307 304 301 303 302 301 296 295 297 298
310 310 310 309 311 310 308 309 308 310 309 310 311 315 317 317 319 319 317 315 313 312 311 307 306 300 301 303 302 300 296 294
309 310 310 309 309 308 306 306 307 308 309 309 311 315 317 320 319 318 318 316 315 313 310 308 308 306 304 301 302 299 300 297
308 309 309 309 309 309 308 308 309 309 310 311 313 315 317 318 319 318 317 317 316 314 313 310 308 307 306 305 303 301 296 297
308 308 308 309 309 309 310 309 311 312 312 312 313 314 316 318 317 316 316 317 317 317 312 310 308 307 306 303 305 303 302 300
307 308 308 309 309 309 310 312 314 315 315 314 313 314 316 318 319 319 319 318 319 316 314 312 310 308 306 306 305 304 302 299

GFSFLT2_sfc_thetae_054.txt.gz
Theta_e
330 332 334 336 334 333 336 338 340 340 340 340 339 338 337 337 336 335 335 335 337 336 334 332 332 330 329 328 326 324 316 317
330 329 330 327 328 332 332 337 338 339 339 339 338 337 337 334 333 333 333 333 334 335 333 332 331 330 328 327 326 323 315 317
325 324 324 324 324 326 330 333 334 337 339 337 334 332 329 327 330 331 331 329 331 333 333 331 329 329 328 326 321 316 316 317
324 322 321 321 323 325 324 323 331 334 336 334 332 328 325 327 329 329 328 328 328 330 331 330 325 322 323 321 316 316 317 318
323 321 320 320 320 320 321 319 326 331 332 331 328 326 327 324 323 323 321 323 316 317 314 314 315 315 315 315 316 317 317 319
323 321 320 320 318 319 319 320 322 322 328 329 327 325 322 321 319 318 315 313 312 311 309 308 310 312 314 315 315 316 316 318
323 322 321 318 316 317 318 320 320 323 324 327 326 321 320 319 318 315 314 313 311 308 306 306 306 308 311 313 314 315 316 317
322 321 321 318 316 316 317 319 319 322 324 323 321 319 318 318 316 314 312 312 311 308 306 303 302 303 306 308 310 312 312 314
322 321 319 319 319 318 319 320 319 321 323 321 319 317 316 316 314 313 312 311 311 308 306 302 300 301 302 305 306 305 306 307
319 323 319 318 318 320 323 323 322 322 321 319 318 318 317 315 313 313 313 312 312 309 307 304 300 300 299 300 302 303 304 304
317 321 320 320 319 319 320 320 322 321 319 318 318 318 318 316 315 314 315 313 312 310 307 306 301 299 299 299 300 300 301 305
316 318 320 319 318 316 316 315 314 317 319 319 319 320 320 318 317 316 315 314 311 309 306 305 304 301 301 299 298 299 299 300
315 316 317 316 316 316 315 314 313 313 316 319 321 322 323 320 319 318 316 313 313 310 307 304 302 302 300 300 300 299 299 298
315 315 316 317 316 317 318 316 315 314 313 315 318 319 321 321 319 317 315 313 311 309 306 303 303 301 299 298 297 299 300 300
314 314 315 316 317 316 314 315 313 312 312 311 314 317 317 319 319 317 315 313 311 309 307 304 302 301 302 302 296 296 297 298
312 313 313 314 316 314 314 313 311 313 312 311 312 316 317 317 318 318 316 314 312 311 310 306 305 303 304 304 302 300 297 296
307 311 312 312 312 313 314 314 314 313 310 310 311 312 316 317 315 315 316 315 314 313 311 308 308 307 305 303 302 300 298 298
307 308 309 309 308 309 309 310 308 308 308 308 308 310 311 314 315 315 315 315 313 312 311 310 309 309 308 307 303 301 299 298
308 308 308 309 308 307 307 307 308 307 308 308 308 309 310 312 312 313 313 314 314 314 313 313 311 310 309 308 307 305 304 301
307 308 308 309 308 308 308 308 308 309 310 310 310 311 311 312 314 315 314 315 315 316 316 314 313 311 310 309 307 305 303 301

GFSFLT2_sfc_thetae_057.txt.gz
Theta_e
334 335 339 337 336 338 339 340 340 340 339 339 339 339 339 339 338 337 338 338 338 335 334 333 332 331 330 328 327 328 326 325
334 333 331 329 335 333 335 337 338 338 338 337 337 337 337 336 335 337 339 338 337 334 333 332 331 330 328 327 326 327 325 325
329 330 326 328 330 328 333 337 336 337 337 336 334 337 334 331 331 335 337 335 333 333 332 331 329 328 328 326 325 324 325 325
326 326 327 326 328 327 328 330 332 335 337 338 334 334 331 328 330 331 332 333 333 332 331 330 327 325 325 324 323 325 325 325
325 324 324 325 325 326 325 324 328 332 337 334 333 330 331 329 327 327 329 331 331 330 328 326 326 324 323 323 324 324 324 325
323 322 323 325 323 322 321 324 327 328 335 332 329 328 327 327 324 324 323 324 326 328 324 324 325 324 323 323 324 324 324 325
321 322 322 322 321 322 321 323 325 326 332 330 326 324 324 324 323 321 320 321 322 321 322 323 322 323 323 323 323 324 325 324
321 322 321 321 319 322 322 322 323 326 329 328 326 324 325 322 321 320 320 318 318 319 320 321 321 321 322 322 322 323 325 325
321 322 321 318 319 319 322 321 322 323 328 328 326 326 325 324 320 319 320 319 318 315 316 317 317 318 319 319 320 321 322 324
322 322 320 319 318 319 321 320 320 322 325 327 325 325 325 324 320 320 321 319 317 314 312 311 311 312 313 314 316 316 317 318
321 320 319 321 321 319 323 323 320 320 323 323 324 322 323 323 322 322 321 320 318 316 313 312 309 309 310 312 312 312 312 311
318 321 319 320 320 321 323 323 322 322 322 323 324 323 323 324 323 322 321 320 318 317 315 314 311 309 305 306 308 309 309 310
317 318 318 319 318 318 318 318 319 322 323 324 324 324 323 323 323 322 321 320 320 319 317 314 311 310 307 307 307 308 309 309
317 318 319 319 319 319 321 318 316 322 324 324 324 324 323 324 323 323 322 321 321 320 318 315 314 310 309 309 307 308 309 309
316 317 318 319 321 320 319 318 315 315 317 320 322 324 325 325 325 325 323 323 322 321 319 317 313 311 312 313 307 307 309 310
318 318 317 318 319 319 316 316 312 317 316 315 317 320 321 324 323 323 322 322 321 321 320 318 317 314 310 310 312 311 307 306
317 317 316 317 318 320 317 314 316 317 315 313 316 318 320 319 320 321 323 323 324 322 320 317 318 316 314 312 310 305 306 308
315 317 314 315 316 317 317 315 314 312 313 312 312 313 316 317 317 317 322 324 324 324 323 321 319 318 317 312 307 304 304 304
313 315 315 315 315 317 317 316 316 314 313 313 314 312 314 316 319 319 322 323 323 324 323 322 321 320 319 315 309 308 309 306
312 313 314 315 314 314 316 318 318 318 318 317 317 315 316 320 319 320 321 322 322 323 324 323 322 321 320 315 312 312 314 310

GFSFLT2_sfc_thetae_063.txt.gz
Theta_e
344 346 337 334 333 335 338 341 342 342 342 342 341 340 340 340 340 339 338 337 337 336 335 334 333 332 331 329 328 331 327 326
340 340 336 336 334 333 334 337 339 340 341 340 339 339 340 340 338 338 338 337 336 335 334 333 331 330 329 328 327 328 326 326
340 336 335 333 334 332 333 335 338 338 340 338 337 338 339 339 336 336 335 334 334 333 332 331 330 329 328 328 329 326 327 325
337 336 336 335 334 334 333 333 336 339 342 340 336 339 339 335 336 334 333 332 332 332 331 329 327 324 325 326 327 328 327 326
335 335 337 335 331 332 334 330 335 340 338 338 336 339 338 336 338 334 332 331 328 327 326 324 323 322 325 327 328 328 326 325
333 334 333 332 333 328 329 328 329 333 334 333 332 334 333 334 334 332 329 328 327 325 325 328 325 324 326 327 328 327 326 325
329 332 331 332 331 331 330 328 327 327 329 330 330 330 333 333 334 333 329 330 329 327 327 325 324 325 326 327 326 327 327 325
330 328 331 330 329 329 330 328 328 327 325 327 328 330 330 331 332 332 330 331 330 328 327 325 323 324 324 325 326 327 327 327
326 327 327 327 325 324 325 326 326 325 325 327 326 328 330 331 331 332 331 331 331 329 327 326 322 322 323 324 325 326 326 327
326 326 325 327 326 325 324 324 325 325 325 326 323 327 328 329 327 328 328 330 328 325 324 323 322 321 322 322 323 324 326 326
326 325 324 325 326 325 325 323 322 322 324 325 325 327 327 327 326 327 329 327 327 325 325 324 321 320 320 321 322 322 323 323
326 325 324 323 323 323 324 322 322 322 323 325 326 324 325 325 325 327 324 323 322 324 324 323 321 319 317 317 320 320 321 320
324 323 321 318 320 321 320 319 320 321 323 323 326 322 324 325 325 326 326 322 322 326 322 321 318 319 314 315 316 318 318 318
322 321 320 318 319 321 321 320 319 320 322 323 325 325 326 327 326 325 325 325 327 325 325 320 319 319 313 312 310 313 316 317
323 322 320 320 318 320 321 321 320 317 319 320 322 324 325 327 328 327 327 328 326 327 327 325 319 320 321 317 312 310 315 317
326 324 321 321 321 319 318 319 317 319 318 321 321 321 326 326 324 325 328 327 327 328 327 327 325 320 320 319 323 321 315 312
324 324 323 322 322 320 319 317 320 320 319 319 319 319 323 322 325 323 324 328 328 329 328 327 327 323 323 321 320 320 322 317
325 321 321 323 322 320 319 317 319 317 319 318 318 320 321 325 325 324 323 324 325 327 327 328 326 325 325 325 322 318 317 316
323 322 320 321 321 321 321 320 319 318 319 318 317 317 321 325 326 326 326 325 323 326 327 327 328 326 326 325 324 323 323 320
323 321 321 321 321 320 321 321 322 320 318 318 318 319 322 325 327 326 326 324 322 325 325 324 325 326 326 327 325 324 325 323

GFSFLT2_sfc_thetae_066.txt.gz
Theta_e
345 346 342 335 335 333 330 331 336 342 343 343 342 340 339 340 340 340 339 338 337 336 335 334 334 332 330 328 328 332 322 322
340 342 338 336 334 331 330 327 328 337 341 340 338 338 340 339 338 338 338 337 336 334 334 334 332 330 328 328 327 330 321 321
339 338 337 337 334 333 330 330 329 332 340 338 335 337 337 336 335 336 336 334 334 334 333 331 330 328 328 328 328 322 322 321
338 337 335 333 332 331 331 329 328 324 337 336 335 336 336 335 334 334 334 332 332 332 331 329 326 321 321 325 321 323 321 321
336 335 335 333 332 333 331 327 329 333 336 335 336 335 334 333 331 330 330 330 327 327 325 321 318 319 320 321 324 323 321 321
333 334 333 333 332 331 330 328 329 332 334 334 334 332 331 331 326 326 324 324 322 322 320 320 317 319 322 324 323 323 321 321
331 332 331 330 330 329 328 327 328 329 332 331 332 330 330 329 325 324 323 324 322 319 320 320 320 319 322 322 324 323 321 321
330 330 330 330 330 329 328 326 327 327 328 328 329 328 330 329 327 322 323 323 324 320 323 320 319 320 321 322 324 323 321 321
327 329 329 328 328 329 328 327 327 325 325 327 327 327 328 329 328 325 325 324 324 323 324 321 319 319 320 321 322 322 322 321
326 326 326 326 326 325 326 327 326 325 325 326 326 326 326 328 327 326 326 325 325 323 321 319 318 317 317 318 319 320 322 321
325 326 325 325 324 324 324 324 325 323 324 325 324 324 325 326 325 326 327 325 325 323 320 319 317 316 317 317 318 318 319 321
325 325 324 324 324 323 323 322 324 323 323 323 322 323 324 325 324 325 323 324 322 321 319 320 318 316 317 316 316 317 317 317
325 323 322 321 321 320 318 317 319 320 320 320 321 323 323 322 322 323 321 319 319 320 319 316 316 317 314 312 312 314 315 314
323 322 319 320 320 320 320 319 318 318 321 320 322 322 321 321 322 321 322 321 319 319 316 314 315 315 310 309 305 307 311 313
323 322 319 319 321 321 320 319 318 317 319 320 320 320 320 319 322 321 321 322 320 319 320 317 314 314 314 310 305 303 307 310
323 321 319 318 320 319 317 316 314 315 318 320 320 321 320 320 322 322 321 322 322 322 323 320 319 313 312 315 316 316 310 306
323 322 320 319 319 319 318 317 317 317 317 318 319 319 321 322 323 323 324 322 323 322 321 321 321 318 316 316 314 315 315 311
323 322 320 321 319 319 318 317 317 316 315 316 317 317 318 320 322 322 321 322 322 322 322 321 322 320 319 318 317 314 312 311
321 322 320 321 320 318 319 318 318 316 315 315 316 316 315 316 321 321 320 321 322 322 321 320 321 319 319 318 318 318 318 315
321 320 320 321 320 319 319 319 318 318 318 316 317 317 317 317 320 321 321 321 321 321 319 318 319 319 319 320 319 319 319 317

GFSFLT2_sfc_thetae_069.txt.gz
Theta_e
338 338 337 336 336 335 334 336 334 336 340 341 341 341 341 342 341 341 340 339 338 337 336 335 334 332 329 328 329 328 321 322
334 334 332 330 331 332 333 335 335 330 332 338 339 340 340 340 339 339 338 337 336 336 335 333 332 329 327 329 328 327 321 320
332 332 331 330 329 330 332 334 334 331 332 327 335 336 336 336 336 336 336 335 335 334 333 331 329 328 328 328 326 320 320 320
331 331 328 328 330 327 326 328 329 327 327 328 335 334 333 334 334 334 334 333 333 332 331 329 325 319 318 323 320 320 320 320
330 329 328 326 326 326 325 325 323 322 322 323 335 333 333 332 331 331 330 331 327 326 325 321 318 317 317 317 319 320 320 321
328 329 329 328 329 327 325 324 325 322 322 323 333 331 330 329 327 327 327 325 322 320 318 317 316 317 318 319 319 319 319 320
326 329 329 327 325 324 325 325 326 326 330 332 332 330 328 325 324 323 322 321 318 316 316 317 314 315 318 320 319 319 319 320
325 328 328 326 324 324 326 325 325 329 330 330 330 330 326 322 321 320 320 320 317 315 316 314 314 316 318 321 319 319 318 318
323 326 327 326 326 323 322 325 327 327 327 328 329 329 326 321 320 319 320 319 316 316 316 317 316 318 317 320 320 319 318 318
325 326 324 323 323 324 323 325 326 326 326 327 327 329 328 325 321 320 321 320 318 318 318 317 315 315 314 317 320 319 318 318
323 323 323 323 320 324 322 323 324 325 326 326 325 326 328 327 323 322 323 321 320 319 319 316 315 314 315 314 315 319 318 319
321 323 323 322 322 323 323 324 322 323 324 325 325 324 325 326 325 324 324 322 320 320 319 315 315 316 317 315 314 315 318 317
322 322 322 321 320 319 319 318 322 321 323 324 323 323 323 324 323 323 321 323 319 319 317 316 313 314 311 310 311 313 313 314
322 321 321 321 320 320 319 319 321 322 322 322 322 323 322 321 323 322 319 322 319 317 314 312 313 313 309 308 304 306 310 311
320 319 320 320 320 320 319 318 318 318 318 319 320 321 320 320 322 321 320 320 318 316 314 312 310 311 312 308 303 302 304 306
320 319 319 319 321 319 317 315 313 316 316 318 318 319 319 318 320 319 319 320 317 316 317 314 314 309 310 313 313 312 305 303
319 318 318 319 320 319 317 315 316 316 317 316 317 318 317 318 318 319 317 318 318 318 318 317 317 314 310 311 311 312 311 307
318 317 317 318 319 319 317 315 314 312 314 316 317 317 317 319 317 320 320 318 319 318 318 318 318 317 315 314 312 310 309 308
317 316 316 318 317 318 317 315 314 312 313 314 315 315 316 317 319 318 318 319 319 319 318 317 317 317 317 317 317 317 315 312
318 316 315 318 317 317 318 318 316 315 314 315 316 316 316 317 318 320 320 317 318 319 319 318 318 318 317 317 318 318 318 316

GFSFLT2_sfc_thetae_072.txt.gz
Theta_e
336 336 338 338 340 338 338 340 341 340 338 340 339 341 341 343 343 343 342 340 340 338 337 335 334 332 332 330 329 328 321 321
333 333 330 329 331 335 336 338 336 335 335 332 333 337 339 340 341 340 340 339 338 338 335 334 332 332 330 329 328 327 319 319
331 329 331 329 330 333 336 336 336 335 334 331 332 334 336 337 337 337 337 336 336 336 334 332 330 330 329 328 326 321 320 319
328 328 327 330 330 331 330 332 331 329 327 330 326 324 335 334 335 335 334 334 334 333 332 330 325 323 325 325 320 320 320 319
327 326 326 329 327 327 326 324 326 324 326 327 324 326 333 333 332 331 330 332 328 327 326 320 317 316 318 318 319 319 320 320
326 326 325 323 324 325 323 324 322 323 324 326 324 329 331 331 329 328 327 326 323 322 318 315 315 316 319 318 318 318 318 320
325 325 328 327 327 323 322 321 322 322 322 324 331 331 329 329 327 326 325 323 321 317 315 313 314 317 319 318 317 318 318 319
323 325 327 326 322 322 324 324 325 323 322 323 329 330 328 326 325 322 321 319 319 318 314 312 312 315 318 318 317 317 318 317
322 323 327 324 321 322 324 322 327 326 326 326 330 328 325 323 320 319 319 316 314 313 313 311 311 316 318 318 317 317 317 317
322 325 322 322 322 322 325 325 327 327 329 329 329 326 323 320 318 318 318 315 314 315 314 311 311 314 316 317 316 316 316 317
321 324 323 319 324 324 323 324 326 327 328 328 328 325 321 319 318 318 317 315 314 315 314 312 311 312 316 317 317 315 315 317
323 323 322 317 319 323 324 323 323 323 327 327 327 327 323 320 320 321 318 316 315 316 314 312 313 312 316 315 317 316 315 315
320 321 321 319 320 319 320 320 321 322 324 324 323 327 326 320 320 322 319 318 317 317 315 313 312 312 310 308 311 315 315 315
319 320 321 321 319 320 319 320 321 322 323 324 323 323 325 323 320 322 322 319 318 317 314 313 312 313 311 308 305 307 311 313
320 320 321 320 320 319 316 318 319 319 320 321 322 323 322 324 322 322 321 321 318 316 313 313 309 310 312 309 302 303 306 308
319 319 319 320 320 318 316 315 315 318 319 320 320 322 321 321 322 321 319 321 319 317 316 312 312 310 308 310 310 309 305 302
317 318 318 318 319 318 317 316 316 317 319 319 319 320 319 319 320 320 318 320 318 317 316 314 312 309 307 309 310 312 311 305
317 316 316 317 319 318 316 315 315 314 315 316 317 318 317 317 319 319 319 319 319 318 318 316 315 313 311 311 310 309 308 307
317 316 315 316 317 317 317 315 315 314 315 315 315 315 316 316 317 318 318 319 320 319 318 318 316 315 313 312 315 312 312 310
317 316 315 316 318 318 317 316 316 313 313 315 315 316 317 318 318 318 319 319 319 319 318 317 315 315 316 315 316 316 316 315

GFSFLT2_sfc_thetae_075.txt.gz
Theta_e
336 339 345 344 342 342 340 340 340 341 340 338 338 339 341 342 342 342 342 342 340 339 338 335 336 335 333 330 329 328 320 322
332 332 331 333 335 336 336 337 336 336 335 330 329 336 338 338 339 341 340 340 339 338 335 334 335 333 331 329 328 326 318 318
329 328 327 328 333 336 337 338 334 334 335 334 331 333 335 335 337 338 338 337 336 335 333 332 332 331 330 328 326 319 318 317
329 329 326 326 332 334 334 334 332 331 332 331 330 332 333 334 334 335 335 335 334 333 331 331 328 325 325 325 319 319 318 316
328 329 328 328 327 328 330 332 331 329 329 329 329 327 331 333 332 332 331 333 329 327 325 324 323 322 318 318 318 318 317 316
327 326 328 328 327 327 325 327 327 325 325 328 323 323 327 330 331 328 328 327 324 323 318 319 319 319 318 317 317 318 317 318
327 328 324 323 323 323 323 324 325 325 325 325 323 324 327 330 329 327 326 325 322 319 316 316 317 317 317 317 317 318 317 319
327 328 327 324 325 323 323 322 323 323 323 325 324 327 330 329 327 325 324 323 320 317 314 314 317 317 316 317 317 317 317 316
323 327 326 323 324 322 325 323 325 321 323 323 326 328 330 328 326 323 321 318 317 314 312 312 314 317 316 317 317 317 316 315
321 326 322 320 318 321 323 324 325 326 324 323 324 328 329 327 324 320 318 315 314 314 312 311 313 316 315 316 316 317 316 315
320 320 319 319 319 321 324 324 325 327 327 325 325 326 326 323 321 319 315 314 314 313 311 312 312 314 314 314 313 315 315 317
320 320 320 322 323 322 322 322 323 326 327 326 324 323 322 320 318 316 316 313 311 312 311 310 312 314 316 313 312 312 315 315
319 318 318 320 321 321 318 319 321 323 325 327 324 322 321 318 318 316 316 311 312 313 312 310 309 311 309 309 309 311 312 313
319 318 318 320 320 320 320 320 321 322 324 324 326 324 321 318 319 316 315 313 313 314 313 311 311 312 310 309 305 308 311 313
318 317 318 319 319 319 318 319 320 319 320 322 323 325 323 319 320 318 317 315 316 316 314 314 310 310 312 309 303 304 307 308
319 320 317 318 319 317 317 316 316 318 320 321 322 324 324 321 320 321 320 318 317 317 315 314 313 311 307 310 309 308 306 302
320 319 319 318 317 317 317 315 316 318 319 319 320 320 321 322 322 319 319 320 318 318 314 312 312 313 308 307 308 310 308 305
317 316 316 318 316 315 315 315 315 313 317 317 318 319 318 319 321 320 319 319 318 317 317 315 312 313 313 310 309 308 308 307
316 316 314 316 316 314 313 314 315 315 316 317 316 317 318 317 319 319 319 319 319 318 316 316 315 314 312 311 312 311 311 310
316 315 315 316 317 316 314 314 316 316 316 316 317 317 318 319 317 318 319 319 319 319 318 317 317 315 314 314 314 313 314 312

GFSFLT2_sfc_thetae_078.txt.gz
Theta_e
336 341 343 343 342 342 341 341 341 342 341 340 338 337 340 340 342 343 343 342 342 341 339 338 337 336 334 331 330 330 325 327
332 340 342 342 343 340 336 339 337 336 335 334 333 331 333 337 337 339 340 341 340 339 338 337 335 333 331 330 329 327 323 325
329 331 334 335 336 338 338 338 336 335 335 333 331 331 332 333 336 336 339 337 338 336 335 335 333 331 330 329 326 320 321 321
331 330 326 326 332 333 335 336 333 332 330 328 328 329 330 331 333 335 335 335 335 333 334 332 329 326 326 325 320 319 318 319
329 330 327 328 330 332 334 333 330 330 329 327 328 329 331 331 331 332 332 333 328 328 329 326 323 323 317 319 319 318 317 318
328 329 329 328 329 329 329 331 330 329 330 330 328 329 330 329 330 330 330 328 323 323 324 322 321 319 318 319 318 317 316 317
326 328 328 328 327 326 327 328 328 328 329 328 327 327 328 330 329 328 328 325 321 316 318 319 316 317 317 318 318 317 317 318
327 327 328 324 325 324 325 325 326 326 326 328 325 325 325 327 327 327 326 324 320 315 317 317 316 317 316 318 318 317 318 318
327 327 325 321 322 324 323 322 323 323 325 326 324 324 326 329 328 326 324 323 318 314 313 316 316 317 316 316 317 318 317 318
326 327 324 320 321 324 324 323 322 321 322 324 325 325 329 329 327 325 322 321 318 314 313 314 315 314 314 315 316 317 318 317
322 325 322 317 318 321 323 324 324 325 323 323 325 325 327 328 326 322 319 318 318 314 312 314 314 314 314 314 314 315 316 317
322 323 320 318 320 321 323 323 324 325 326 324 324 325 327 327 323 319 319 317 314 313 311 310 314 314 314 312 312 313 315 315
320 321 321 320 318 318 319 319 321 323 326 327 325 325 327 324 320 317 317 314 314 313 311 310 310 313 311 310 310 311 312 313
319 320 319 320 321 320 320 320 321 322 324 323 322 321 321 320 318 317 315 313 313 313 312 309 310 314 309 308 306 309 311 313
319 319 318 318 320 319 318 319 320 320 322 323 322 321 320 319 318 317 313 313 313 314 312 311 310 312 314 309 304 304 308 310
319 317 317 319 319 318 317 315 315 318 320 322 323 322 320 319 319 316 314 313 313 315 314 313 313 311 309 311 311 310 307 302
317 316 317 318 318 318 312 314 315 318 319 320 321 322 320 319 320 317 316 315 316 316 314 313 313 313 310 309 309 309 308 305
317 318 318 317 317 317 312 314 315 315 315 318 318 319 321 319 320 320 320 318 317 317 315 314 313 313 313 310 310 308 307 306
318 317 316 316 315 316 315 312 313 312 316 317 318 317 317 320 319 319 320 319 317 317 316 315 313 312 312 311 311 311 312 310
316 315 315 315 315 315 313 312 312 312 315 317 318 318 318 318 320 319 319 319 319 318 317 316 316 315 314 313 312 312 313 312

GFSFLT2_sfc_thetae_081.txt.gz
Theta_e
341 344 347 343 341 342 342 342 343 342 343 344 341 337 339 340 339 341 342 343 341 342 341 340 339 337 335 333 332 334 336 336
343 343 344 349 349 340 340 341 340 339 339 337 336 335 334 335 337 338 339 342 341 341 339 338 337 335 333 331 331 332 335 334
343 340 343 346 345 344 340 340 338 337 338 335 334 336 335 335 335 336 337 338 338 338 337 335 333 332 332 330 329 332 332 332
338 337 339 340 338 341 344 342 341 335 335 334 335 335 335 333 332 334 335 336 336 336 335 332 333 333 331 327 330 330 330 330
336 335 335 336 337 338 337 337 337 333 332 331 334 334 333 331 333 335 334 335 336 336 334 334 334 333 330 330 329 329 328 328
333 334 334 335 336 333 334 334 334 331 330 331 333 333 332 333 334 334 332 331 332 336 334 333 332 330 329 328 328 327 327 326
331 332 333 333 333 332 333 333 332 332 331 329 333 332 332 333 333 334 330 328 329 333 331 330 329 328 328 327 326 326 325 325
330 330 332 333 332 331 331 332 332 331 330 331 330 330 333 333 333 333 331 326 328 331 330 328 327 327 326 326 325 325 325 325
328 330 333 331 329 331 330 328 328 328 329 331 329 330 330 331 331 331 331 325 323 328 328 327 326 326 325 325 325 324 323 324
329 331 331 330 329 328 327 326 325 325 327 328 328 329 331 331 330 329 329 324 322 324 325 324 324 323 323 323 323 323 324 325
328 329 329 327 327 327 328 327 327 325 325 326 326 327 329 329 329 329 328 322 322 323 323 323 321 322 321 322 323 322 324 324
327 327 329 326 325 325 325 326 327 327 325 326 327 328 327 329 327 324 325 322 321 321 321 323 322 322 319 320 321 323 324 323
324 325 324 322 321 321 322 321 324 326 327 328 327 326 327 325 325 322 323 321 320 321 321 321 320 323 319 317 319 321 321 322
322 323 323 322 323 322 322 323 324 325 328 327 327 325 326 326 321 322 321 320 322 320 320 320 320 321 318 317 311 314 318 320
322 322 323 322 324 325 322 322 323 322 323 322 321 324 325 323 321 320 319 321 319 319 320 321 317 320 322 318 311 311 315 319
322 322 322 322 326 324 320 318 318 321 323 323 321 321 320 320 319 318 317 320 319 318 318 320 321 317 319 318 322 320 314 312
321 320 321 322 325 324 321 319 320 322 322 322 322 320 321 319 318 315 316 318 319 318 317 318 321 320 318 317 317 318 320 316
319 318 319 320 322 322 320 321 319 318 320 320 320 321 320 320 318 317 316 317 317 319 318 318 318 320 318 318 316 315 313 314
317 318 317 318 319 319 319 322 320 319 319 320 319 319 319 318 319 317 317 317 319 320 320 319 319 320 321 318 319 318 317 316
320 321 319 317 318 318 318 321 321 320 321 321 321 321 322 321 320 319 318 318 318 318 318 319 321 320 320 322 319 318 318 316

GFSFLT2_sfc_thetae_084.txt.gz
Theta_e
350 350 349 342 341 343 343 344 345 344 346 344 343 342 341 342 341 342 341 342 342 343 343 341 341 339 337 335 335 337 339 338
347 347 349 348 347 341 342 342 342 340 343 338 338 340 340 340 339 339 337 340 341 341 340 339 337 336 334 333 333 335 337 338
351 346 347 349 350 348 343 343 341 340 340 337 337 343 343 337 337 337 338 338 340 340 338 337 334 333 333 332 332 336 336 334
349 346 347 347 346 349 348 350 349 347 346 342 343 344 341 339 336 336 336 337 338 337 335 334 334 338 336 332 335 335 334 333
345 344 345 349 345 345 346 345 345 346 345 341 341 341 338 335 335 335 341 336 335 335 335 340 338 337 335 335 334 336 333 332
342 342 343 346 342 342 342 339 339 341 343 343 338 337 338 337 332 334 336 334 333 333 339 339 337 336 335 334 334 332 331 330
340 342 342 339 338 338 337 336 337 338 340 340 338 335 336 334 333 336 337 334 333 333 338 336 335 334 334 333 332 331 330 328
341 340 341 342 343 337 335 337 336 337 338 338 336 333 335 333 334 336 334 331 332 332 335 334 334 333 333 332 331 330 328 328
340 339 340 340 340 340 338 335 337 336 335 336 334 335 336 335 336 336 333 333 330 331 334 335 332 331 331 331 329 328 326 326
339 336 339 338 338 337 337 334 335 335 334 335 333 331 332 332 332 334 333 331 331 329 334 330 330 329 328 328 327 326 326 326
337 337 337 338 336 334 335 332 331 331 332 332 332 332 331 331 334 335 332 329 331 326 330 330 328 328 327 327 326 325 326 325
337 336 338 335 329 330 331 331 330 328 327 328 329 329 330 332 331 331 329 328 325 326 327 329 329 326 324 324 326 325 325 324
336 333 336 331 328 328 327 328 328 328 329 329 330 329 328 328 328 328 326 324 323 324 328 327 325 327 322 321 322 323 324 323
334 332 332 332 331 330 328 327 328 329 330 332 333 331 331 328 326 325 325 323 321 322 326 324 325 326 321 320 313 318 321 323
331 331 333 330 332 329 329 328 327 326 328 330 329 328 327 326 326 324 324 322 319 320 326 326 322 325 326 320 313 312 317 321
331 331 332 329 330 328 327 324 321 325 326 326 328 326 326 325 325 324 323 322 320 321 325 326 325 322 324 323 324 321 315 314
330 328 329 329 327 330 326 325 324 327 326 325 323 322 322 322 322 322 321 322 321 321 325 327 327 325 322 323 323 323 323 317
327 325 325 327 328 329 327 325 325 324 324 321 321 321 321 319 318 319 320 319 320 321 327 326 325 325 324 324 321 320 319 318
322 322 322 325 330 328 325 325 325 323 322 320 320 319 319 319 318 317 317 319 319 320 322 323 324 324 324 324 322 321 322 320
320 321 322 323 328 326 323 325 324 322 323 323 322 321 320 320 318 319 318 318 319 321 320 321 323 325 324 324 323 323 324 322

GFSFLT2_sfc_thetae_087.txt.gz
Theta_e
353 351 348 343 343 344 344 346 346 346 344 345 344 343 343 344 343 343 342 341 341 342 342 342 342 338 337 336 337 334 339 340
352 353 351 350 349 342 343 345 345 344 345 341 340 341 342 341 341 341 340 339 340 341 340 340 337 336 335 334 332 333 338 337
351 349 351 351 348 347 343 343 343 341 342 339 337 344 345 341 339 338 338 337 339 340 339 337 335 333 333 334 333 337 336 334
350 348 347 349 346 350 348 346 347 347 345 346 344 345 344 341 338 336 336 336 337 338 337 335 334 340 338 333 337 337 334 333
347 349 348 349 346 349 347 346 348 348 348 346 346 346 344 341 337 337 338 337 336 337 336 338 339 340 340 339 336 335 333 331
345 348 345 348 345 344 345 347 348 346 345 346 346 344 342 340 337 336 337 341 338 335 335 338 339 338 338 336 334 334 333 333
344 345 346 346 345 343 344 345 344 343 345 344 346 343 340 339 336 337 338 340 334 330 331 336 338 337 336 335 330 332 330 330
344 344 345 345 344 342 340 342 341 341 341 342 343 343 340 339 337 337 339 339 336 330 331 332 337 336 333 332 330 330 329 329
342 344 345 344 343 343 339 341 337 337 338 342 341 340 338 339 337 338 335 336 337 330 330 331 334 332 329 330 329 329 327 326
339 342 343 343 343 342 341 337 337 337 339 340 339 337 337 337 336 336 337 334 334 328 329 327 328 328 328 326 327 327 326 326
336 343 341 342 342 341 340 338 335 337 339 337 336 336 336 336 335 334 334 333 332 330 328 327 327 326 326 326 326 324 324 324
336 342 340 341 341 338 336 333 334 334 334 334 336 334 333 332 331 331 330 331 331 330 326 326 327 326 324 323 325 325 325 324
336 340 339 340 335 331 331 328 331 331 332 333 333 333 332 331 330 330 329 330 328 328 326 324 323 325 322 322 323 325 325 324
336 338 338 338 334 334 333 332 330 333 333 331 331 329 330 329 329 328 327 327 326 325 325 322 323 326 321 318 314 317 322 324
335 337 338 337 336 334 333 331 330 329 328 329 334 333 334 332 331 328 325 327 324 324 324 323 319 324 326 320 313 311 317 321
335 336 337 336 336 333 330 327 324 327 328 330 331 332 331 332 331 328 326 324 323 323 325 324 323 322 323 323 323 321 315 314
335 335 335 335 334 333 330 328 327 328 328 328 328 328 327 328 326 326 324 324 323 323 322 323 324 325 321 323 322 322 322 317
335 333 333 332 333 332 331 328 326 325 327 326 325 326 323 321 321 324 323 322 321 322 322 322 324 325 324 324 322 319 319 318
333 331 330 330 332 332 330 329 327 325 326 325 322 321 320 318 318 318 320 321 321 322 322 323 325 324 324 323 325 324 324 322
328 326 326 327 331 331 330 328 326 325 327 324 324 322 322 320 318 317 319 320 320 321 322 323 324 325 325 325 323 324 325 322

GFSFLT2_sfc_thetae_090.txt.gz
Theta_e
349 347 346 344 343 345 345 346 346 348 348 348 347 346 345 345 344 343 343 340 338 339 341 340 340 337 339 337 333 335 337 337
351 349 347 346 345 342 344 345 345 345 346 343 341 342 343 343 342 342 341 340 339 340 341 341 339 337 336 334 333 335 335 337
352 350 349 349 348 345 343 345 344 343 343 340 338 344 343 340 339 339 340 339 339 340 340 338 336 336 335 333 332 333 335 335
349 349 349 349 345 345 344 345 344 345 345 342 344 343 342 340 338 336 335 336 337 337 337 336 336 335 333 332 332 332 332 333
347 346 347 346 344 346 344 345 344 344 344 344 341 341 341 339 337 335 334 336 335 336 334 335 336 336 334 333 333 331 331 331
346 346 344 345 345 344 345 344 344 345 344 343 341 340 338 338 336 335 332 333 333 333 333 334 334 336 334 333 331 331 329 331
343 346 344 346 345 343 343 344 345 344 343 343 341 338 336 337 336 335 333 334 333 332 332 331 331 334 334 331 330 329 331 329
343 344 344 345 344 343 342 343 343 343 342 341 340 338 337 336 335 333 333 334 332 331 329 328 329 332 332 331 329 328 329 327
342 342 345 343 343 341 339 340 339 339 339 340 338 338 336 335 334 333 333 334 332 329 328 328 328 331 330 329 330 326 326 325
342 342 342 343 341 341 338 337 339 338 337 338 338 337 336 334 332 332 333 333 331 327 327 327 328 329 327 327 325 324 322 323
341 341 341 342 341 342 339 337 336 336 336 336 336 336 335 334 332 332 332 331 330 327 326 325 325 325 325 322 322 322 321 321
341 341 341 341 341 340 338 335 334 335 333 334 335 335 334 333 332 331 331 329 328 327 326 326 325 325 326 321 320 319 319 318
340 339 339 339 338 334 332 330 330 330 331 333 333 334 332 332 330 330 330 328 327 327 326 323 323 325 321 317 319 320 318 317
338 339 338 338 338 334 333 331 330 329 329 329 331 333 331 330 329 328 328 327 327 326 324 321 322 324 318 316 311 315 319 319
336 338 337 337 337 333 332 330 329 328 328 328 329 330 330 330 328 328 327 327 326 326 324 321 319 322 322 315 310 308 313 318
334 338 335 337 335 332 329 326 323 326 326 327 329 331 329 329 328 328 327 326 325 325 326 323 321 318 320 320 317 316 310 310
332 336 335 335 333 333 330 326 326 326 327 327 328 328 329 328 329 328 327 325 324 325 324 323 322 320 319 318 316 317 316 313
331 334 333 335 333 333 329 327 325 324 324 325 325 324 323 322 324 325 325 325 323 324 325 324 322 321 321 319 317 314 314 314
331 332 331 333 332 331 330 329 327 325 325 324 323 320 320 319 319 321 323 324 323 323 323 323 322 320 320 320 320 319 319 317
331 330 329 331 331 330 330 328 326 325 326 324 323 321 320 320 318 319 320 321 321 322 322 322 321 320 321 321 320 320 319 317

GFSFLT2_sfc_thetae_093.txt.gz
Theta_e
340 342 345 344 343 344 345 346 345 345 348 348 348 346 345 346 346 344 344 342 341 341 341 340 341 341 338 334 333 337 335 336
340 340 340 339 339 342 343 344 343 344 347 345 344 343 344 344 343 343 342 341 341 341 340 339 340 339 336 333 334 335 334 335
341 340 339 338 338 341 343 345 343 343 343 341 338 341 340 340 339 341 340 338 339 339 339 339 338 337 336 333 333 333 334 334
343 341 340 340 343 339 337 342 342 339 340 338 338 338 337 338 338 338 338 337 337 338 338 336 336 336 334 334 331 332 332 331
342 342 341 340 338 338 338 338 338 338 338 336 336 338 336 334 334 335 334 336 335 335 335 335 335 333 333 331 330 330 331 331
343 341 340 339 337 339 338 339 337 337 336 337 334 335 335 334 332 331 329 331 331 332 333 332 334 334 334 331 330 329 330 331
342 340 339 340 337 338 338 338 338 338 338 337 335 334 334 334 331 332 330 330 329 330 330 331 331 333 333 332 329 328 328 329
342 340 339 341 339 335 334 339 338 336 336 336 334 334 333 332 332 332 331 330 330 329 330 329 328 331 331 330 328 329 327 328
340 340 340 340 339 335 334 334 336 334 334 335 334 333 332 331 330 330 331 331 329 328 328 327 327 330 329 329 328 328 327 326
339 342 339 339 337 335 333 332 332 332 332 332 332 333 332 330 328 328 331 329 327 326 326 325 325 325 325 328 328 327 325 324
337 340 337 337 336 334 333 331 332 332 331 330 331 332 332 329 328 328 330 328 326 325 325 325 324 325 326 327 325 325 323 324
336 337 337 337 336 334 332 331 329 329 330 329 330 332 330 329 328 328 329 328 327 325 324 325 324 325 327 326 323 322 322 322
335 335 336 336 334 333 330 329 329 327 329 331 331 330 328 327 327 326 328 327 325 325 325 323 323 325 321 318 319 317 319 320
334 335 336 336 335 334 331 328 324 325 328 330 330 328 327 327 327 328 327 325 324 326 325 322 322 325 319 316 311 314 317 315
334 335 335 335 333 329 327 325 324 321 322 324 329 331 328 327 328 328 328 327 326 325 325 322 319 322 322 316 309 308 312 315
334 335 334 333 332 330 325 324 321 321 322 324 327 329 329 328 328 327 327 326 325 326 325 322 321 318 321 322 317 315 309 307
334 333 333 333 330 328 325 322 320 322 321 322 324 325 327 327 327 324 326 326 326 326 324 322 322 319 319 319 316 315 315 310
333 331 332 331 329 328 325 322 320 321 319 320 322 325 326 325 327 326 325 325 325 325 326 323 321 321 321 319 316 313 313 311
329 330 329 330 328 327 327 325 321 320 319 320 319 319 318 319 320 321 323 325 325 325 325 324 322 321 320 319 319 316 316 315
324 328 328 327 327 326 327 326 321 321 321 320 317 317 319 319 318 319 320 320 323 324 324 324 323 321 320 320 320 319 318 317

GFSFLT2_sfc_thetae_096.txt.gz
Theta_e
340 342 345 343 343 343 344 345 346 346 347 347 348 346 345 347 347 346 345 344 344 344 344 343 343 342 339 336 335 337 334 335
338 339 339 338 340 341 342 343 342 343 345 344 344 344 344 344 344 344 343 342 342 342 341 340 341 339 337 334 334 335 333 332
337 338 338 336 337 341 343 343 341 342 343 343 340 342 341 341 340 341 340 338 340 340 339 337 338 337 336 335 335 334 332 332
337 337 336 335 340 338 338 341 341 339 340 341 340 338 337 338 338 338 336 335 337 338 337 336 336 335 334 335 333 334 332 331
338 337 337 337 338 337 339 340 339 338 337 336 335 336 334 334 335 336 334 335 333 335 335 334 334 334 333 331 332 333 331 331
340 339 338 338 338 336 337 337 337 337 337 335 334 334 332 332 333 331 332 332 330 331 330 330 332 334 333 331 330 332 330 331
340 340 340 339 338 336 336 336 336 336 335 335 334 334 332 331 330 330 329 330 330 327 327 328 330 333 333 331 330 330 330 331
340 340 341 340 337 337 336 337 336 335 335 335 333 334 333 332 331 330 329 329 330 329 328 328 327 331 331 331 329 329 329 329
339 339 339 339 338 337 336 337 336 335 335 333 332 333 333 332 332 331 329 330 328 327 326 326 325 330 329 329 329 328 327 327
339 340 337 338 337 336 336 337 336 335 334 333 332 332 332 330 330 330 331 330 329 327 326 326 324 325 325 326 327 328 327 326
337 339 337 337 336 336 335 335 335 334 332 331 330 331 331 330 328 328 331 330 329 327 326 325 323 323 324 325 326 326 325 327
334 338 337 337 335 334 333 333 332 332 331 330 329 330 330 329 326 327 329 327 326 326 325 324 324 324 325 325 325 325 324 324
332 336 336 335 333 330 329 329 329 329 329 329 328 330 329 327 326 326 327 326 325 324 323 322 322 324 321 322 320 321 321 322
325 334 335 335 335 334 331 330 329 329 328 329 328 328 329 329 326 326 326 326 325 325 323 322 322 324 318 316 311 313 317 320
325 333 334 335 336 333 329 324 322 322 325 328 329 329 328 327 326 325 325 325 323 324 323 322 320 322 320 315 310 308 312 315
322 332 334 335 334 330 327 327 324 323 325 322 327 330 328 325 324 325 326 326 325 324 325 322 322 319 319 321 318 316 310 309
329 333 334 334 331 331 328 325 322 322 321 321 321 326 328 327 326 326 325 325 325 325 324 322 323 321 320 318 317 315 315 311
326 332 333 332 331 328 327 322 321 321 320 320 321 320 324 325 323 326 325 325 322 325 325 322 321 321 321 319 317 314 313 311
317 329 329 330 330 327 326 322 322 321 320 320 320 322 323 324 324 325 325 324 322 325 325 323 321 320 321 320 319 317 317 315
315 327 329 328 327 325 324 323 322 322 321 321 321 322 322 320 320 321 321 322 324 324 324 324 323 321 320 320 319 317 317 316

GFSFLT2_sfc_thetae_099.txt.gz
Theta_e
340 343 345 344 342 343 343 344 345 346 346 347 348 346 346 347 347 347 346 345 346 345 344 343 343 343 340 337 336 337 334 334
337 341 342 341 341 340 341 343 343 344 345 344 343 344 345 345 345 345 345 344 344 344 343 342 342 340 338 336 335 336 334 333
335 339 339 337 338 341 343 343 342 341 342 341 340 342 341 342 341 341 342 340 341 342 341 340 339 337 336 335 336 334 333 332
333 335 335 334 339 340 341 342 338 338 342 342 341 339 338 339 339 338 338 337 338 338 337 336 336 333 333 336 332 333 333 331
334 335 334 334 337 339 340 341 339 336 340 341 337 337 336 336 335 337 334 335 333 333 333 332 331 332 332 332 333 333 332 331
334 334 334 334 336 337 338 339 338 339 336 335 337 336 332 332 334 334 332 331 329 329 329 330 331 331 331 330 332 332 331 332
335 334 334 334 334 335 336 336 336 337 338 335 335 335 333 331 331 332 332 330 328 327 327 330 331 332 331 330 330 330 330 331
337 336 335 335 335 334 334 336 336 335 336 335 334 334 332 330 329 329 328 329 328 328 327 327 327 329 329 329 330 329 330 330
337 338 338 336 335 334 333 333 334 334 334 333 332 332 331 330 330 329 327 328 326 325 326 327 327 329 328 329 329 329 329 328
338 340 339 337 336 335 334 334 334 333 333 333 331 332 332 330 332 331 328 329 329 326 326 325 325 326 326 327 328 328 328 328
333 338 337 338 337 335 334 335 334 334 334 333 332 332 332 331 331 330 330 329 329 328 326 326 324 324 325 325 326 327 326 328
323 336 337 337 337 334 333 334 334 334 333 333 332 332 331 329 328 329 329 329 328 328 326 325 324 324 325 324 325 326 326 326
320 331 335 335 334 332 331 331 333 333 334 332 332 331 329 328 326 327 329 327 326 327 326 323 322 324 322 321 322 324 324 325
312 328 334 335 335 334 332 332 333 333 332 331 331 329 329 328 326 327 327 325 325 325 324 322 323 324 319 317 312 314 319 323
309 326 333 335 335 334 326 325 326 325 327 328 328 329 329 330 328 327 326 326 324 324 324 323 320 323 319 316 310 308 312 317
307 324 332 334 335 332 328 327 326 327 329 329 326 327 327 328 327 327 326 326 324 324 324 323 322 318 320 320 315 314 310 308
313 318 331 333 334 332 329 327 326 326 327 322 326 325 326 326 327 326 326 325 325 324 323 322 321 319 319 318 316 315 314 312
308 319 329 332 333 332 329 327 323 321 323 321 322 324 325 326 326 326 326 325 324 323 324 323 322 320 321 318 317 312 312 312
305 313 328 331 332 331 328 326 323 321 321 322 320 319 318 324 324 324 324 323 323 323 323 322 322 321 321 318 318 316 316 316
300 307 327 330 330 328 326 322 323 322 321 322 321 320 320 320 322 321 323 323 321 321 323 323 323 321 321 321 319 317 317 316

GFSFLT2_sfc_thetae_102.txt.gz
Theta_e
342 343 345 344 343 343 343 344 345 345 346 346 348 346 346 348 348 348 347 347 346 346 344 343 343 343 340 338 337 338 336 337
340 342 341 339 342 341 341 342 343 343 344 344 343 344 345 345 345 346 346 345 346 344 343 343 342 341 338 336 336 337 335 336
338 338 340 341 336 340 342 343 343 342 344 342 339 341 342 343 342 342 343 341 342 343 342 340 339 339 337 336 336 334 334 335
335 336 337 336 339 340 342 343 343 342 341 340 340 338 337 339 340 339 340 338 340 340 338 337 337 334 334 336 333 333 333 333
332 334 335 336 338 339 339 339 338 336 336 336 336 337 336 335 334 337 335 337 334 335 334 334 334 333 332 333 332 332 333 334
330 331 332 334 337 337 338 338 339 335 336 338 338 339 336 332 334 332 330 330 329 329 329 329 330 330 330 331 331 332 332 332
332 331 332 333 334 336 336 337 337 338 337 338 340 339 337 334 332 334 329 327 327 326 326 328 329 331 330 330 331 331 331 331
335 333 333 332 334 334 334 336 336 335 336 336 338 338 336 333 333 334 328 328 326 326 326 326 328 331 330 329 330 330 330 330
333 335 334 332 333 332 333 334 334 334 334 336 337 337 335 333 332 331 331 329 326 324 324 325 326 329 329 329 329 329 329 328
327 337 335 333 333 333 332 333 333 333 334 334 334 335 332 330 332 331 329 329 329 327 326 326 324 326 326 327 328 328 328 328
308 331 335 335 334 334 332 331 332 332 333 333 333 333 331 331 333 331 329 329 329 327 327 327 323 324 324 326 327 327 328 329
302 315 334 336 337 335 333 332 333 333 333 332 332 332 331 331 332 330 330 328 327 327 326 326 325 324 326 325 325 327 327 327
299 305 328 335 336 333 332 331 332 333 333 332 331 332 331 331 330 329 329 328 328 328 327 325 324 324 322 322 323 325 325 326
301 305 321 334 335 335 335 333 334 334 333 332 331 331 331 330 329 328 328 328 327 327 325 323 324 324 319 317 312 315 321 324
307 309 316 332 334 335 328 331 328 330 331 331 331 331 331 330 328 328 328 328 325 325 325 323 321 323 321 318 310 310 313 317
305 308 311 328 333 332 330 328 326 328 330 331 332 332 330 330 328 328 328 327 325 324 325 324 323 320 321 321 318 315 310 308
304 305 309 318 332 332 330 327 328 327 330 329 329 329 329 329 327 326 327 326 325 325 324 323 324 322 321 319 316 315 314 309
302 304 306 313 331 331 329 327 326 325 327 326 327 327 326 325 325 325 325 326 324 324 324 323 322 322 321 320 319 314 311 311
299 301 303 308 328 331 330 327 326 325 326 326 325 325 324 324 324 324 325 326 325 324 323 322 322 320 321 320 320 319 316 315
296 299 301 306 327 331 332 329 324 324 325 325 324 324 324 324 324 325 325 324 323 323 321 321 322 321 321 321 320 320 317 316

GFSFLT2_sfc_thetae_105.txt.gz
Theta_e
350 351 349 344 343 343 343 344 345 346 346 347 348 348 347 349 349 349 348 349 346 347 345 344 344 343 342 339 337 339 347 347
346 347 347 350 352 341 341 342 342 343 345 344 344 344 346 346 345 347 348 347 345 345 343 343 343 341 339 337 336 338 347 346
342 344 345 347 349 348 344 343 343 342 344 343 342 350 351 350 346 344 344 342 343 343 342 340 340 339 337 336 337 344 345 345
339 341 342 343 343 349 350 348 349 350 350 349 349 350 350 348 345 340 341 339 341 340 340 338 339 345 343 337 344 345 344 344
338 337 339 339 340 344 344 345 345 344 349 350 349 348 349 348 347 348 349 341 346 344 343 345 345 345 343 343 343 342 343 343
339 336 336 337 340 341 342 340 341 342 347 350 348 345 345 346 345 348 348 346 345 346 345 345 344 344 344 342 338 340 341 342
338 338 335 335 337 340 340 340 341 343 346 347 348 342 342 343 346 346 345 345 344 343 343 342 342 342 342 341 338 339 338 339
342 339 337 339 337 339 339 340 340 342 345 345 346 346 342 340 340 341 343 343 342 342 341 341 340 340 339 339 339 338 336 333
330 340 340 340 340 340 340 340 341 338 339 340 339 340 340 339 338 339 339 340 341 340 339 338 338 336 335 338 338 338 336 332
313 330 341 341 340 340 340 340 340 338 337 337 338 339 340 337 336 336 336 335 337 337 334 334 334 334 332 335 336 335 331 331
309 315 332 339 340 341 340 339 338 339 337 336 336 337 338 335 336 336 335 332 333 333 332 333 332 331 332 333 334 332 328 329
308 309 316 337 340 340 339 337 338 336 335 335 336 335 336 336 336 336 334 332 331 331 329 330 330 330 328 329 330 332 331 328
315 315 311 320 334 336 333 330 333 333 334 337 336 335 334 335 336 335 333 332 330 330 329 327 326 328 326 326 327 330 330 327
312 314 316 316 327 335 336 334 334 335 335 335 336 336 335 335 335 333 331 330 330 330 328 326 326 326 322 320 314 318 324 328
308 311 313 317 321 334 338 334 334 332 333 332 333 337 336 335 334 333 330 330 329 330 330 328 322 325 326 320 312 312 316 323
305 307 310 314 319 327 332 328 327 331 333 333 333 334 334 335 334 333 331 331 331 330 331 329 326 321 324 324 321 321 316 314
303 303 306 311 314 321 331 331 332 335 335 336 334 333 334 334 333 333 333 332 331 330 329 328 327 324 323 322 320 318 318 316
298 299 302 306 311 316 327 331 332 331 333 333 332 330 331 332 332 332 332 330 331 332 328 328 326 325 325 324 321 316 316 315
296 297 298 302 307 314 323 330 330 332 332 333 330 328 328 329 330 331 331 330 331 331 327 327 326 324 323 322 323 322 321 321
293 294 296 301 304 310 324 330 330 332 333 333 331 327 328 330 329 331 331 329 329 331 330 329 325 324 324 323 323 322 322 320

GFSFLT2_sfc_thetae_108.txt.gz
Theta_e
357 356 351 345 344 344 343 345 346 346 347 348 350 349 348 350 350 350 351 349 348 348 347 345 345 344 343 340 339 341 346 345
356 355 353 356 354 343 342 343 343 344 345 345 345 346 347 348 347 348 348 348 347 346 345 344 344 342 341 339 338 340 347 344
352 349 350 351 355 351 344 344 343 343 345 344 343 351 353 352 347 345 345 344 344 344 343 342 341 340 339 338 338 345 345 345
347 347 348 348 347 354 353 353 351 351 350 351 350 351 352 349 346 343 343 341 341 341 341 339 340 346 345 339 345 343 343 344
347 346 347 347 346 350 349 350 351 352 353 353 351 350 352 350 350 350 351 343 348 345 345 346 345 345 346 344 344 343 348 345
346 347 348 347 345 349 349 348 349 346 349 353 351 350 350 349 347 349 349 349 347 347 345 346 345 345 344 344 345 346 347 344
343 345 346 346 343 347 347 346 346 346 350 351 351 347 348 348 347 347 347 346 346 346 345 345 344 344 345 344 343 344 343 343
330 343 345 345 344 345 344 345 345 346 347 347 351 349 347 345 347 346 347 346 346 345 344 343 342 343 342 343 343 342 339 342
317 331 346 345 344 344 344 343 344 343 345 348 349 349 348 345 344 344 345 346 347 345 345 344 342 340 340 341 341 341 340 340
317 317 323 336 343 344 344 343 343 343 343 345 348 347 347 344 341 341 343 346 345 343 341 339 340 339 339 339 339 341 340 340
322 321 318 326 337 342 344 346 344 343 344 343 344 345 343 341 339 341 342 340 341 341 340 339 337 336 337 338 338 337 337 336
324 324 324 319 326 337 339 342 343 344 343 342 342 341 341 340 340 341 339 337 339 339 337 337 336 335 332 333 336 336 336 335
320 322 324 325 317 326 332 335 338 339 343 343 342 341 340 339 339 339 336 335 336 337 337 333 333 334 328 327 331 334 333 334
316 318 320 322 323 320 330 334 335 337 340 342 341 339 339 338 338 336 336 336 335 335 333 329 331 334 325 323 318 322 329 333
313 314 316 318 322 324 324 332 335 334 335 337 338 340 339 338 338 337 336 337 334 334 332 330 326 328 332 323 315 314 319 327
311 312 313 314 318 320 323 324 328 332 334 335 335 337 340 338 338 338 338 337 335 336 333 334 332 325 328 330 324 324 318 318
309 309 310 311 312 313 316 322 330 333 333 334 334 334 337 338 339 338 337 336 335 335 333 334 335 331 327 325 325 322 320 320
305 305 305 307 307 309 311 315 324 331 333 333 332 333 333 335 337 338 338 335 333 334 337 337 334 334 332 330 327 320 319 317
301 299 299 302 301 304 308 310 320 326 333 333 332 332 331 332 334 335 335 335 337 336 337 336 335 333 331 331 331 330 327 323
296 294 294 296 297 300 304 307 313 326 331 330 333 333 330 332 333 334 334 336 335 336 335 334 335 334 330 330 327 326 326 323

GFSFLT2_sfc_thetae_114.txt.gz
Theta_e
354 350 348 347 345 345 345 347 348 349 349 350 351 349 349 350 350 351 351 351 351 349 348 347 345 344 344 342 341 341 341 341
357 353 350 349 348 344 344 345 346 347 348 348 347 348 349 348 348 349 350 349 349 349 347 346 344 343 342 341 340 341 340 341
358 353 351 351 350 347 344 345 345 345 347 346 343 350 349 348 347 346 348 346 346 346 346 343 342 342 341 340 339 341 339 337
354 354 352 352 349 348 347 346 346 347 348 348 350 350 350 348 347 344 344 344 344 344 343 341 340 341 341 339 339 340 338 336
351 349 348 349 351 350 347 347 345 346 347 348 347 348 349 347 346 345 346 343 345 342 342 343 341 340 340 340 340 339 338 339
349 348 348 347 348 350 350 348 347 346 346 348 346 345 345 346 344 345 345 345 344 343 342 342 341 341 341 341 339 338 337 337
344 346 347 347 347 348 350 347 348 348 348 349 348 345 345 345 343 344 345 345 344 342 342 342 341 342 342 339 339 339 339 337
335 342 344 348 347 347 347 349 349 347 347 349 349 347 343 344 343 343 344 344 344 342 340 339 339 339 339 339 338 338 338 338
323 322 329 336 344 344 345 346 346 347 346 347 347 348 344 343 343 341 340 344 342 341 341 341 340 339 337 338 338 338 337 338
326 326 326 327 327 343 344 343 344 342 344 345 345 347 344 345 342 342 343 340 343 342 340 336 336 337 335 336 336 336 336 336
324 326 327 328 328 326 329 340 343 342 341 343 343 343 346 343 343 342 342 342 339 341 339 337 335 334 334 335 334 334 334 337
323 324 326 327 327 329 325 323 337 342 342 341 343 343 343 343 342 342 341 339 338 338 336 337 335 334 335 333 333 334 334 335
319 321 323 322 322 322 323 321 324 334 339 342 343 343 343 342 341 342 340 338 337 337 337 334 333 335 330 328 330 332 332 331
315 315 317 317 317 318 320 321 323 325 325 331 340 342 343 343 341 340 340 337 335 336 336 332 333 334 326 324 320 323 328 330
312 313 313 314 316 315 316 319 321 323 323 324 335 338 343 341 340 340 339 337 334 334 336 332 329 332 332 322 315 313 319 326
311 311 310 311 311 310 311 311 311 316 319 323 326 332 334 340 339 340 338 338 334 333 335 334 331 327 331 330 325 322 315 314
309 308 308 307 307 308 307 307 308 310 312 315 318 324 330 337 338 339 338 338 336 333 333 333 332 329 328 328 326 325 323 318
306 305 304 304 304 304 303 303 303 305 307 309 313 318 325 333 336 337 336 335 336 335 334 333 332 331 328 327 326 323 321 318
302 302 300 300 300 300 300 300 300 300 302 305 308 312 317 325 333 334 335 336 336 336 335 333 332 330 329 327 327 325 324 322
300 297 296 297 296 296 297 297 297 298 300 302 305 309 314 320 330 332 333 333 334 335 334 334 333 331 329 329 327 326 326 324

GFSFLT2_sfc_thetae_117.txt.gz
Theta_e
345 346 347 346 345 346 345 347 347 347 348 349 350 349 348 349 349 350 351 350 349 350 348 348 345 343 343 341 340 341 339 335
344 344 343 342 343 343 344 345 345 346 347 346 346 347 348 348 347 348 349 349 348 348 346 345 344 342 341 340 339 339 338 338
347 344 343 342 341 343 344 345 345 345 346 345 343 347 347 347 346 345 347 345 345 346 345 343 341 341 340 340 339 338 338 336
347 345 344 344 346 342 341 343 343 344 346 346 346 345 345 347 344 343 344 343 343 343 343 341 340 339 338 339 337 338 337 336
346 347 347 345 344 342 342 340 339 341 343 344 345 346 345 344 344 343 342 342 342 342 341 340 339 338 337 336 337 337 335 336
345 345 345 346 348 343 342 342 340 340 341 343 343 340 341 343 342 341 341 342 340 340 340 339 338 338 337 337 337 336 333 336
343 343 342 343 343 345 346 342 342 341 341 342 343 339 339 339 340 341 342 341 340 338 339 339 338 337 338 337 337 336 335 336
319 336 343 342 339 341 340 342 343 343 343 343 343 342 339 340 339 339 341 341 341 339 338 338 338 337 337 338 336 336 336 335
319 320 322 323 334 338 340 340 342 342 341 343 344 344 340 338 338 337 340 342 340 340 336 334 334 336 335 335 335 335 335 335
319 322 322 322 322 324 335 339 339 339 342 343 342 345 342 339 338 338 336 341 340 339 337 334 333 333 332 332 333 333 333 334
316 318 318 319 320 322 323 324 325 336 339 342 342 340 343 341 338 337 337 336 339 338 336 333 330 331 331 331 331 331 331 334
314 316 315 316 317 318 320 320 319 325 335 336 339 341 339 341 340 339 336 335 335 336 336 332 331 331 333 331 329 330 330 329
310 310 311 312 311 311 312 313 316 319 322 325 328 339 339 338 338 337 337 336 335 333 331 332 328 331 327 324 326 327 327 328
308 308 308 309 308 309 310 311 314 316 320 321 323 325 333 337 338 337 338 335 332 333 330 325 329 332 323 320 319 319 324 327
305 305 305 306 306 306 307 308 309 310 312 314 316 319 323 331 337 337 337 336 333 332 331 329 328 327 328 321 315 311 315 321
303 304 303 304 303 302 301 301 302 304 306 307 309 312 315 320 325 334 336 336 334 332 334 333 331 327 324 325 319 317 311 310
299 300 300 299 299 299 298 298 300 302 303 303 305 308 310 313 318 323 332 333 333 332 330 332 331 328 327 327 324 319 317 314
297 297 296 296 296 296 295 294 295 296 297 298 300 304 307 310 314 319 326 332 333 331 330 330 333 332 328 326 326 323 320 315
295 294 293 293 293 293 294 294 294 295 296 297 298 299 302 305 309 313 320 328 332 333 330 330 331 331 329 328 327 326 324 322
290 290 290 291 290 290 292 292 293 293 294 295 297 299 300 302 305 308 312 316 329 331 331 331 331 331 329 329 328 326 324 320

GFSFLT2_sfc_thetae_123.txt.gz
Theta_e
342 344 347 345 344 344 344 344 345 346 346 347 348 347 346 348 348 348 350 349 348 348 347 344 343 342 342 339 338 340 335 334
340 340 342 342 344 342 343 343 343 344 345 345 344 344 345 346 345 346 348 348 347 347 346 344 343 341 340 338 337 338 335 334
338 338 339 340 341 343 343 344 343 342 344 343 341 344 344 344 343 343 345 344 344 345 344 342 340 339 338 338 337 335 334 335
337 337 337 338 343 341 341 343 344 343 343 342 344 342 342 344 342 341 342 341 342 342 342 340 339 337 336 338 335 335 334 334
339 337 336 337 339 338 339 343 343 344 345 345 345 343 343 343 341 341 342 341 342 341 340 341 338 335 334 334 334 334 333 333
334 338 337 336 337 337 337 338 339 341 342 343 342 341 341 342 342 340 339 341 342 341 341 341 339 336 335 333 334 333 333 332
337 341 337 337 336 337 336 337 339 339 339 342 342 341 340 341 341 340 338 338 339 340 341 339 339 337 335 334 333 334 333 333
323 325 334 339 337 337 336 338 338 337 337 339 341 341 339 339 340 338 338 337 338 338 339 339 338 337 335 334 334 334 333 332
317 317 317 319 322 324 326 333 337 337 337 339 339 340 339 337 338 338 338 339 337 337 337 337 336 336 334 333 334 334 333 332
312 314 312 312 313 315 318 319 321 326 330 333 336 339 340 336 335 336 338 335 336 336 337 336 336 334 333 332 333 333 332 332
307 307 307 307 308 309 311 312 313 317 319 325 327 329 332 330 329 335 334 334 334 335 335 335 334 333 332 333 331 331 332 333
304 304 304 304 304 305 306 305 307 311 314 314 319 320 323 328 326 326 328 332 331 332 333 334 333 332 331 330 329 331 331 331
301 300 300 301 301 300 302 300 302 304 309 308 313 310 312 315 321 323 329 328 328 332 333 331 330 327 325 324 324 325 328 330
298 298 297 298 298 298 298 298 302 302 302 303 306 305 309 310 312 317 321 323 329 330 332 330 328 328 324 320 319 322 324 326
295 294 294 295 295 296 296 297 297 298 296 297 300 301 303 305 308 310 312 317 319 323 329 327 326 327 329 322 314 314 317 321
292 293 293 293 293 292 291 291 290 293 294 295 296 298 300 303 305 306 308 310 313 317 325 328 325 321 327 327 325 319 314 312
290 291 290 291 290 290 289 288 290 291 292 292 294 296 297 299 301 302 303 306 309 313 316 322 329 325 324 322 322 321 319 314
290 289 289 288 288 287 287 286 286 287 289 290 292 294 295 296 298 298 299 301 303 307 312 315 325 328 325 323 320 318 317 316
288 288 287 287 286 286 286 286 286 287 288 289 290 292 294 295 295 296 297 299 300 301 303 306 310 324 325 322 322 321 320 320
286 286 286 287 287 287 287 288 288 289 289 289 290 291 293 295 295 297 298 300 301 301 301 303 308 312 325 323 323 323 324 321

GFSFLT2_sfc_thetae_126.txt.gz
Theta_e
341 343 346 345 343 344 343 344 345 346 346 346 347 347 347 348 349 349 351 350 349 348 347 346 345 343 342 340 338 340 336 335
337 339 341 342 342 342 342 342 343 344 345 344 343 344 345 346 346 347 349 349 347 347 345 343 343 341 339 338 337 339 337 335
337 337 338 339 340 342 343 344 343 342 343 342 340 342 342 343 343 343 345 344 344 345 344 342 340 339 338 337 337 337 336 335
336 336 336 337 342 340 340 344 345 342 341 341 342 343 339 343 341 340 341 341 342 342 342 340 339 338 337 338 336 335 335 335
338 335 335 335 337 338 342 343 343 344 343 341 343 343 343 342 340 340 339 340 341 341 340 340 338 336 335 334 334 334 334 334
331 335 334 334 335 336 338 341 340 341 341 343 343 341 341 341 341 341 339 339 342 343 342 342 340 336 334 334 334 334 333 333
329 332 336 333 333 333 332 335 337 340 339 341 340 339 338 340 340 341 340 339 342 341 341 340 339 338 335 334 334 334 333 333
320 325 338 340 338 336 335 333 333 335 335 338 340 341 339 339 339 339 339 336 339 340 339 338 337 337 336 335 334 334 334 333
314 314 317 321 322 323 325 331 332 332 333 332 336 339 338 338 336 338 336 336 336 337 339 339 337 337 335 336 335 334 334 333
306 308 307 308 310 313 314 316 319 322 325 328 328 330 333 334 334 333 334 337 336 337 337 335 336 334 334 334 334 334 333 333
301 301 301 303 305 309 308 310 310 313 315 315 317 318 317 324 331 332 334 333 335 336 336 335 334 334 334 333 333 333 333 333
298 297 297 299 301 302 304 303 305 309 306 309 309 310 311 313 321 326 325 325 327 331 331 333 334 333 332 331 332 331 331 332
294 294 294 295 295 295 299 297 301 303 302 305 304 304 307 307 309 314 319 323 323 324 325 325 328 331 328 326 325 328 328 330
293 292 292 292 293 293 294 296 298 300 297 299 300 300 303 303 305 308 311 314 317 325 323 322 323 327 325 321 319 320 325 327
291 291 290 291 291 291 292 294 294 295 293 294 296 298 299 302 303 304 306 309 311 315 318 323 321 326 327 323 314 314 317 322
290 291 290 290 289 288 287 287 287 290 291 292 293 296 298 299 300 301 302 305 306 310 315 318 321 319 321 327 327 320 314 312
289 289 289 288 288 287 286 285 286 288 289 289 291 294 295 297 298 298 298 300 301 303 305 309 315 317 323 322 324 322 321 314
289 288 288 288 288 288 287 286 286 287 288 289 291 292 293 295 296 296 296 297 298 300 302 303 306 312 317 322 321 320 318 317
287 287 286 287 287 287 287 287 287 287 288 289 289 290 291 293 294 295 296 297 299 300 300 300 301 303 307 313 325 323 322 319
286 286 286 286 287 287 288 288 287 288 288 288 289 290 291 292 294 295 295 297 298 299 300 301 301 302 304 307 317 324 323 321

GFSFLT2_sfc_thetae_129.txt.gz
Theta_e
350 352 351 345 343 343 343 345 346 346 346 346 348 348 348 349 350 350 350 350 349 349 347 346 346 344 342 340 339 340 347 346
349 350 352 353 353 342 342 343 343 344 345 344 344 345 346 346 346 348 349 349 349 348 346 345 344 342 340 339 338 339 346 346
349 349 350 351 352 350 345 344 343 342 345 343 341 350 351 350 346 345 346 345 345 345 344 342 340 340 339 338 337 345 346 345
349 349 348 348 347 350 351 351 351 351 351 351 351 351 350 348 345 341 342 342 340 341 341 339 340 346 345 339 344 345 345 344
347 348 348 347 347 348 348 346 346 348 348 350 350 348 347 348 348 347 348 344 350 347 347 349 348 347 346 345 344 345 343 345
341 345 346 347 347 347 345 344 345 345 347 348 348 349 346 344 344 345 346 347 347 347 348 348 347 348 347 346 345 343 343 344
329 338 340 343 345 345 345 342 342 343 344 344 346 346 346 345 345 344 344 345 346 346 344 344 344 344 345 345 344 343 343 343
317 317 322 332 338 340 340 341 342 343 343 342 343 344 345 345 343 343 342 343 342 346 346 343 343 344 343 342 343 343 343 343
307 310 311 314 319 323 326 330 332 335 334 334 339 343 345 345 343 342 344 343 340 341 342 344 343 341 340 342 341 343 342 343
303 303 304 306 310 316 320 322 324 322 324 327 328 328 329 337 338 337 339 339 339 338 339 336 338 339 339 339 340 339 341 343
300 301 301 303 306 311 313 315 316 314 316 317 315 316 318 323 331 337 337 335 336 333 328 334 336 336 336 337 338 337 339 341
298 299 298 300 303 306 309 307 310 308 308 310 308 309 311 313 318 320 326 331 333 331 327 330 337 339 337 337 339 339 340 339
296 296 297 297 297 299 302 301 306 307 304 305 305 305 307 309 311 314 318 321 325 329 332 330 328 333 331 333 333 336 335 335
295 295 295 295 295 296 298 299 303 305 301 301 302 302 304 306 307 309 311 313 316 321 325 325 328 332 328 328 321 327 329 332
294 294 294 294 294 295 296 298 298 299 297 298 298 300 302 303 304 306 307 309 310 314 317 319 320 328 330 326 319 320 322 327
292 293 293 293 294 293 292 291 291 293 294 296 297 299 300 301 302 303 304 305 306 307 310 313 317 319 327 331 328 325 317 317
291 291 291 291 293 293 292 292 292 293 293 294 296 297 298 299 300 299 300 302 303 304 306 308 311 313 317 327 323 322 326 321
291 290 290 290 290 291 291 290 290 290 291 291 292 294 294 296 296 296 297 297 298 300 301 302 304 306 309 313 322 322 320 320
290 290 289 289 289 290 291 290 290 289 289 288 289 290 292 293 294 294 295 296 297 299 300 300 301 301 304 309 313 316 323 322
289 288 288 289 289 289 290 290 289 289 289 288 289 289 290 292 292 293 294 295 296 297 297 299 301 301 302 303 307 312 313 323

GFSFLT2_sfc_thetae_132.txt.gz
Theta_e
359 357 354 346 346 346 345 346 347 347 347 348 350 350 350 351 351 351 352 351 351 350 349 347 346 345 344 341 340 341 347 346
357 359 359 359 358 344 344 344 345 345 346 346 346 347 348 348 348 349 350 348 347 349 347 346 346 344 342 340 339 340 346 346
355 358 358 360 359 354 346 345 345 344 346 345 344 351 351 352 347 346 346 344 345 346 346 344 343 342 341 340 339 345 345 345
349 355 357 358 354 356 357 355 355 354 354 354 352 352 351 349 346 343 344 341 340 342 343 342 342 346 345 341 345 345 345 345
334 350 356 356 354 354 354 356 354 353 355 355 354 351 352 351 350 350 351 344 349 346 347 349 347 346 344 345 344 345 344 344
333 341 347 351 353 351 353 349 349 349 350 351 352 350 349 350 348 351 349 349 348 350 349 348 348 348 348 347 347 345 343 343
325 328 333 342 343 345 349 348 347 347 348 347 349 348 349 348 348 346 347 350 350 349 348 348 348 349 348 347 346 346 346 344
317 319 323 328 326 332 340 343 344 344 344 343 345 346 346 345 347 348 348 348 349 349 346 346 346 347 345 345 346 346 346 346
312 314 317 320 323 326 325 329 329 328 328 326 326 326 325 344 346 345 346 349 349 347 347 345 344 344 343 345 345 347 346 346
309 309 312 315 318 320 320 323 322 321 323 322 321 321 322 325 334 341 343 345 343 341 343 342 340 342 341 342 343 345 345 346
306 306 306 310 314 317 317 319 320 318 320 318 317 319 320 322 328 326 325 335 338 340 340 342 337 337 338 340 342 343 343 343
305 305 306 308 309 313 315 314 316 316 313 313 314 314 315 317 320 322 325 326 331 335 337 339 336 333 334 336 336 340 343 341
303 303 304 304 305 305 307 307 311 313 310 310 310 311 313 314 315 317 319 321 322 324 326 331 335 334 330 330 328 327 339 340
303 303 303 303 303 304 304 305 308 308 307 308 308 308 310 310 311 313 315 315 317 321 323 320 326 331 327 327 321 325 335 337
300 300 301 301 302 303 304 305 305 305 304 304 305 306 307 308 309 310 311 312 312 315 318 319 317 321 327 325 320 319 326 336
301 300 300 300 301 300 300 300 299 301 302 302 303 305 304 305 306 306 306 308 309 311 313 314 313 312 318 323 328 330 322 321
300 300 299 298 299 299 299 298 299 300 300 300 302 302 303 302 302 301 302 303 304 304 306 309 312 312 314 315 317 327 331 324
299 298 298 298 298 298 297 296 296 296 296 296 297 299 300 301 299 299 298 298 299 300 301 303 303 304 309 312 312 312 320 323
297 297 296 297 296 295 296 294 295 294 293 293 294 295 296 297 296 296 296 297 297 298 299 299 300 301 303 305 311 314 314 313
296 295 294 294 294 293 293 292 292 292 291 291 291 291 292 293 293 294 294 295 295 296 296 297 298 300 301 302 302 307 313 314

GFSFLT2_sfc_thetae_135.txt.gz
Theta_e
356 360 353 348 348 348 348 348 348 348 348 350 352 352 350 351 351 352 352 350 352 352 350 349 347 345 345 343 342 342 344 345
351 358 361 360 357 345 346 346 346 346 347 347 348 350 350 349 349 349 349 350 349 350 349 348 346 345 344 342 341 341 344 343
345 353 356 361 361 356 346 346 346 346 347 346 345 350 351 352 349 347 348 345 346 348 347 345 344 344 343 342 340 344 343 343
337 348 352 356 354 358 359 357 355 354 353 353 352 351 349 348 346 344 345 344 344 345 344 343 343 346 345 341 344 343 342 341
336 340 350 352 349 349 349 349 353 356 356 357 355 356 353 350 353 353 350 345 348 345 347 349 347 345 342 345 344 342 342 340
327 330 337 343 350 352 354 352 351 350 352 353 354 355 354 353 351 352 353 352 346 347 347 348 347 347 346 347 347 343 340 339
322 325 330 336 338 338 345 349 349 347 347 346 347 349 350 352 352 350 350 352 350 349 349 348 347 348 347 347 345 346 345 342
318 320 324 328 332 332 333 332 333 334 332 328 328 328 328 337 348 349 351 351 352 349 348 346 346 347 345 345 346 347 346 347
314 316 319 323 327 329 329 328 326 326 324 324 324 322 324 326 333 343 345 347 347 345 340 345 348 347 343 345 345 346 344 343
313 312 314 317 320 323 323 325 323 322 322 322 322 323 324 325 330 334 333 331 340 339 335 332 334 338 339 343 344 345 344 344
310 311 311 313 315 321 320 321 321 320 320 319 318 320 320 321 325 328 330 331 332 338 338 339 338 339 335 339 343 342 343 342
309 309 309 311 311 313 315 314 317 318 315 314 315 314 316 317 319 322 324 325 328 329 331 333 338 337 336 336 339 340 342 344
307 307 308 308 308 307 308 308 312 312 312 312 312 312 313 314 315 316 318 319 320 323 325 326 326 334 329 330 334 337 337 339
306 306 306 306 306 307 308 308 309 310 309 310 310 310 311 310 312 312 314 314 316 318 320 320 322 326 324 324 321 327 333 336
306 306 305 305 306 307 307 308 308 307 306 307 307 308 309 309 309 309 309 310 311 313 315 316 315 319 323 319 317 316 323 331
305 304 303 303 305 304 304 303 302 303 304 305 305 307 306 307 307 306 305 307 307 308 310 311 312 311 316 318 322 323 316 318
304 304 303 303 303 302 302 301 301 302 302 302 303 303 304 305 305 303 302 302 303 303 304 305 306 306 309 312 315 317 319 321
303 302 301 302 301 300 300 298 298 298 298 298 299 300 300 301 299 298 297 298 299 299 300 300 300 301 304 306 307 310 311 316
301 300 299 300 299 299 298 297 297 296 295 294 294 295 295 295 295 294 295 295 296 297 296 297 298 298 299 300 304 307 311 313
300 299 298 298 297 297 297 296 295 294 293 292 292 291 292 293 292 293 293 293 294 294 295 295 296 298 297 299 300 301 304 308